1487534400.23,3365,13.25,73208.8,-11.21,-42.05,-42.19,0,*5D
1487534401.46,3366,13.25,73210.8,-11.23,-41.99,-42.05,0,*57
1487534402.69,3367,13.25,73210.0,-11.23,-41.93,-41.99,0,*5A
1487534403.93,3368,13.25,73210.5,-11.23,-41.73,-41.81,0,*52
1487534405.16,3369,13.25,73210.5,-11.23,-41.55,-41.61,0,*59
1487534406.4,3370,13.25,73214.0,-11.23,-41.55,-41.73,0,*52
1487534407.63,3371,13.25,73208.0,-11.23,-41.55,-41.61,0,*50
1487534408.91,3372,13.25,73212.5,-11.21,-41.81,-41.93,0,*55
1487534410.17,3373,13.25,73212.8,-11.21,-41.93,-41.99,0,*5D
1487534411.43,3374,13.25,73210.8,-11.21,-42.05,-42.25,0,*52
1487534412.69,3375,13.25,73210.0,-11.21,-42.19,-42.25,0,*5E
1487534413.98,3376,13.25,73212.0,-11.21,-42.05,-42.19,0,*5F
1487534415.21,3377,13.25,73214.3,-11.23,-41.93,-41.99,0,*5B
1487534416.42,3378,13.25,73210.5,-11.23,-41.99,-41.99,0,*5E
1487534417.71,3379,13.25,73210.3,-11.25,-41.81,-41.81,0,*59
1487534418.91,3380,13.25,73210.8,-11.23,-41.73,-41.61,0,*5A
1487534420.2,3381,13.25,73212.0,-11.21,-41.81,-42.05,0,*55
1487534421.46,3382,13.25,73208.5,-11.19,-41.93,-42.05,0,*5E
1487534422.74,3383,13.25,73214.0,-11.21,-41.81,-41.93,0,*5B
1487534424.0,3384,13.25,73210.5,-11.21,-41.81,-41.99,0,*56
1487534425.27,3385,13.25,73212.0,-11.21,-41.81,-41.93,0,*5D
1487534426.53,3386,13.25,73210.3,-11.19,-41.93,-42.05,0,*5A
1487534427.82,3387,13.25,73212.3,-11.21,-42.19,-42.45,0,*55
1487534429.08,3388,13.19,73204.3,-11.21,-41.99,-42.05,0,*55
1487534430.31,3389,13.25,73208.8,-11.23,-42.19,-42.37,0,*5C
1487534431.58,3390,13.25,73210.5,-11.23,-42.19,-42.45,0,*51
1487534432.84,3391,13.25,73212.3,-11.23,-42.19,-42.45,0,*50
1487534434.08,3392,13.25,73214.3,-11.23,-42.19,-42.37,0,*56
1487534435.31,3393,13.25,73210.0,-11.23,-42.05,-42.25,0,*59
1487534436.55,3394,13.25,73210.0,-11.25,-42.13,-42.25,0,*5F
1487534437.8,3395,13.25,73210.8,-11.25,-42.05,-42.25,0,*59
1487534439.07,3396,13.25,73212.8,-11.25,-42.25,-42.31,0,*5D
1487534440.33,3397,13.25,73212.8,-11.25,-42.05,-42.25,0,*5B
1487534441.56,3398,13.25,73208.0,-11.25,-42.13,-42.13,0,*56
1487534442.82,3399,13.25,73208.3,-11.25,-41.99,-42.05,0,*51
1487534444.09,3400,13.25,73210.5,-11.25,-42.25,-42.31,0,*55
1487534445.35,3401,13.25,73210.3,-11.25,-42.25,-42.45,0,*57
1487534446.63,3402,13.25,73208.5,-11.25,-42.31,-42.57,0,*52
1487534447.84,3403,13.25,73214.3,-11.23,-42.25,-42.37,0,*56
1487534449.08,3404,13.25,73212.8,-11.25,-42.25,-42.51,0,*57
1487534450.34,3405,13.25,73208.0,-11.25,-42.45,-42.63,0,*51
1487534451.56,3406,13.25,73214.8,-11.31,-42.51,-42.75,0,*55
1487534452.8,3407,13.25,73208.3,-11.31,-42.51,-42.69,0,*59
1487534454.04,3408,13.25,73210.5,-11.27,-42.45,-42.63,0,*5E
1487534455.28,3409,13.25,73210.3,-11.31,-42.51,-42.69,0,*57
1487534456.51,3410,13.25,73214.5,-11.27,-42.05,-42.25,0,*51
1487534457.76,3411,13.25,73214.3,-11.27,-42.13,-42.31,0,*52
1487534459.02,3412,13.25,73208.8,-11.27,-42.31,-42.69,0,*5C
1487534460.26,3413,13.25,73208.8,-11.31,-42.51,-42.57,0,*51
1487534461.47,3414,13.25,73212.0,-11.31,-42.37,-42.51,0,*50
1487534462.71,3415,13.25,73214.0,-11.33,-42.37,-42.51,0,*53
1487534463.99,3416,13.25,73212.3,-11.33,-42.31,-42.57,0,*50
1487534465.28,3417,13.25,73208.3,-11.33,-42.31,-42.69,0,*5C
1487534466.52,3418,13.25,73210.0,-11.33,-42.51,-42.75,0,*58
1487534467.76,3419,13.25,73210.0,-11.33,-42.51,-42.75,0,*59
1487534469.0,3420,13.25,73208.3,-11.33,-42.51,-42.75,0,*53
1487534470.26,3421,13.25,73210.8,-11.33,-42.37,-42.69,0,*5F
1487534471.51,3422,13.25,73212.5,-11.33,-42.51,-42.57,0,*51
1487534472.75,3423,13.25,73210.3,-11.33,-42.37,-42.51,0,*56
1487534473.99,3424,13.25,73212.5,-11.35,-42.57,-42.75,0,*57
1487534475.25,3425,13.25,73214.8,-11.35,-42.45,-42.83,0,*5C
1487534476.48,3426,13.25,73208.3,-11.35,-42.37,-42.57,0,*53
1487534477.72,3427,13.25,73212.3,-11.37,-42.37,-42.63,0,*57
1487534478.97,3428,13.25,73208.3,-11.37,-42.37,-42.63,0,*58
1487534480.23,3429,13.25,73212.0,-11.37,-42.45,-42.63,0,*5C
1487534481.5,3430,13.25,73212.3,-11.37,-42.45,-42.63,0,*54
1487534482.78,3431,13.25,73210.0,-11.37,-42.57,-42.83,0,*58
1487534484.02,3432,13.25,73210.3,-11.39,-42.51,-42.83,0,*53
1487534485.26,3433,13.25,73210.8,-11.39,-42.63,-42.83,0,*53
1487534486.5,3434,13.25,73214.8,-11.37,-42.63,-42.63,0,*54
1487534487.77,3435,13.25,73208.8,-11.39,-42.31,-42.31,0,*5B
1487534489.01,3436,13.25,73210.0,-11.39,-42.19,-42.25,0,*57
1487534490.29,3437,13.25,73208.0,-11.39,-42.19,-42.31,0,*53
1487534491.5,3438,13.25,73210.5,-11.39,-42.25,-42.37,0,*55
1487534492.73,3439,13.25,73208.0,-11.41,-41.99,-42.19,0,*53
1487534493.95,3440,13.25,73210.0,-11.39,-42.25,-42.25,0,*59
1487534495.22,3441,13.25,73208.3,-11.37,-42.19,-42.37,0,*5A
1487534496.44,3442,13.25,73210.3,-11.39,-42.25,-42.51,0,*58
1487534497.67,3443,13.25,73214.5,-11.41,-42.19,-42.25,0,*5A
1487534498.87,3444,13.25,73210.8,-11.41,-41.99,-41.99,0,*52
1487534500.1,3445,13.25,73210.5,-11.41,-41.87,-42.19,0,*57
1487534501.36,3446,13.25,73208.0,-11.41,-42.05,-42.19,0,*5D
1487534502.61,3447,13.25,73210.3,-11.41,-42.05,-42.19,0,*5C
1487534503.86,3448,13.25,73210.5,-11.39,-41.81,-41.87,0,*57
1487534505.09,3449,13.25,73208.5,-11.41,-41.67,-41.87,0,*51
1487534506.3,3450,13.25,73208.5,-11.41,-41.61,-41.87,0,*5F
1487534507.54,3451,13.25,73208.0,-11.39,-41.81,-41.87,0,*5F
1487534508.76,3452,13.19,73206.0,-11.39,-41.87,-41.99,0,*55
1487534509.99,3453,13.25,73204.8,-11.39,-41.99,-42.05,0,*5D
1487534511.27,3454,13.25,73210.8,-11.39,-42.19,-42.19,0,*5C
1487534512.53,3455,13.25,73212.3,-11.39,-41.81,-42.05,0,*52
1487534513.78,3456,13.25,73208.5,-11.37,-41.73,-41.93,0,*5E
1487534515.02,3457,13.25,73210.3,-11.39,-41.81,-41.99,0,*56
1487534516.24,3458,13.25,73210.3,-11.39,-41.87,-41.99,0,*5F
1487534517.48,3459,13.25,73208.5,-11.39,-41.61,-41.81,0,*5F
1487534518.7,3460,13.25,73208.5,-11.39,-41.87,-41.99,0,*54
1487534519.96,3461,13.19,73206.0,-11.39,-42.05,-42.19,0,*57
1487534521.23,3462,13.25,73208.8,-11.39,-42.05,-42.19,0,*54
1487534522.46,3463,13.25,73206.5,-11.41,-41.81,-41.99,0,*5E
1487534523.68,3464,13.25,73208.8,-11.41,-41.87,-42.05,0,*59
1487534524.9,3465,13.25,73210.5,-11.39,-41.87,-41.99,0,*51
1487534526.17,3466,13.25,73210.3,-11.39,-42.19,-42.05,0,*50
1487534527.41,3467,13.25,73208.3,-11.39,-41.99,-42.19,0,*57
1487534528.65,3468,13.25,73212.0,-11.39,-41.99,-42.19,0,*58
1487534529.89,3469,13.25,73208.5,-11.39,-41.99,-42.19,0,*59
1487534531.12,3470,13.19,73206.3,-11.41,-42.05,-42.25,0,*57
1487534532.34,3471,13.25,73208.3,-11.41,-41.99,-42.05,0,*52
1487534533.57,3472,13.25,73210.3,-11.41,-41.99,-42.19,0,*5C
1487534534.8,3473,13.25,73210.0,-11.41,-42.05,-42.25,0,*54
1487534536.03,3474,13.25,73208.0,-11.41,-41.81,-41.99,0,*58
1487534537.26,3475,13.25,73210.5,-11.41,-41.81,-41.99,0,*59
1487534538.51,3476,13.25,73210.5,-11.41,-42.05,-42.19,0,*5E
1487534539.74,3477,13.25,73212.0,-11.41,-41.99,-42.19,0,*59
1487534541.02,3478,13.25,73208.3,-11.43,-41.67,-41.93,0,*54
1487534542.25,3479,13.25,73206.5,-11.41,-41.93,-41.87,0,*59
1487534543.49,3480,13.25,73208.3,-11.41,-41.67,-41.87,0,*54
1487534544.72,3481,13.25,73204.8,-11.41,-41.41,-41.67,0,*5F
1487534545.92,3482,13.25,73204.0,-11.41,-41.29,-41.61,0,*54
1487534547.15,3483,13.25,73204.8,-11.41,-41.41,-41.81,0,*55
1487534548.39,3484,13.25,73204.0,-11.39,-41.49,-41.67,0,*5D
1487534549.66,3485,13.25,73204.3,-11.39,-41.67,-41.81,0,*58
1487534550.9,3486,13.25,73208.5,-11.39,-41.93,-41.99,0,*59
1487534552.11,3487,13.25,73204.0,-11.39,-41.99,-42.13,0,*53
1487534553.39,3488,13.19,73206.8,-11.37,-41.81,-41.93,0,*50
1487534554.65,3489,13.25,73206.5,-11.37,-41.73,-41.81,0,*5F
1487534555.89,3490,13.25,73208.0,-11.39,-41.87,-42.05,0,*5D
1487534557.15,3491,13.25,73208.5,-11.39,-41.93,-42.05,0,*59
1487534558.41,3492,13.19,73206.5,-11.37,-41.73,-41.93,0,*56
1487534559.63,3493,13.25,73208.5,-11.39,-41.87,-41.87,0,*57
1487534560.87,3494,13.25,73204.5,-11.39,-41.81,-41.87,0,*56
1487534562.14,3495,13.25,73206.3,-11.39,-42.05,-42.19,0,*5C
1487534563.38,3496,13.25,73208.3,-11.39,-42.25,-42.45,0,*54
1487534564.65,3497,13.25,73206.0,-11.39,-42.31,-42.31,0,*53
1487534565.88,3498,13.25,73208.8,-11.39,-41.99,-42.05,0,*5A
1487534567.12,3499,13.25,73208.3,-11.41,-41.81,-41.87,0,*54
1487534568.35,3500,13.25,73208.8,-11.41,-41.67,-41.87,0,*5D
1487534569.6,3501,13.25,73206.0,-11.41,-42.05,-42.19,0,*5F
1487534570.85,3502,13.25,73210.0,-11.39,-41.67,-41.99,0,*5F
1487534572.09,3503,13.25,73206.3,-11.39,-41.81,-41.99,0,*56
1487534573.33,3504,13.25,73206.8,-11.39,-42.25,-42.31,0,*5D
1487534574.61,3505,13.25,73206.5,-11.39,-42.31,-42.31,0,*59
1487534575.86,3506,13.25,73206.8,-11.39,-42.25,-42.31,0,*5F
1487534577.09,3507,13.25,73210.5,-11.41,-42.19,-42.25,0,*5B
1487534578.34,3508,13.25,73204.8,-11.41,-42.19,-42.45,0,*52
1487534579.58,3509,13.25,73208.0,-11.41,-42.25,-42.31,0,*5F
1487534580.84,3510,13.25,73206.0,-11.41,-42.19,-42.31,0,*58
1487534582.07,3511,13.25,73208.0,-11.41,-41.99,-42.05,0,*55
1487534583.32,3512,13.25,73206.3,-11.43,-41.87,-42.05,0,*5B
1487534584.58,3513,13.25,73206.5,-11.43,-42.05,-42.13,0,*54
1487534585.81,3514,13.25,73210.8,-11.41,-41.99,-42.19,0,*5D
1487534587.03,3515,13.25,73208.8,-11.41,-42.31,-42.37,0,*51
1487534588.27,3516,13.25,73204.8,-11.41,-42.25,-42.31,0,*51
1487534589.53,3517,13.25,73210.3,-11.43,-41.93,-42.13,0,*5C
1487534590.79,3518,13.25,73208.0,-11.43,-41.67,-41.87,0,*56
1487534592.02,3519,13.25,73206.3,-11.43,-41.73,-41.87,0,*52
1487534593.25,3520,13.25,73208.3,-11.43,-41.73,-41.87,0,*58
1487534594.5,3521,13.25,73208.8,-11.41,-41.93,-42.05,0,*5C
1487534595.73,3522,13.25,73208.5,-11.43,-41.87,-42.13,0,*5F
1487534596.99,3523,13.25,73208.3,-11.43,-41.93,-42.25,0,*5E
1487534598.22,3524,13.25,73208.8,-11.41,-41.81,-41.99,0,*5C
1487534599.47,3525,13.25,73208.0,-11.43,-41.93,-42.13,0,*5D
1487534600.76,3526,13.25,73208.0,-11.43,-41.55,-41.67,0,*54
1487534602.02,3527,13.25,73210.3,-11.41,-41.67,-41.67,0,*56
1487534603.25,3528,13.25,73206.8,-11.41,-41.49,-41.81,0,*5D
1487534604.5,3529,13.25,73206.3,-11.41,-41.81,-41.81,0,*58
1487534605.79,3530,13.25,73208.0,-11.43,-41.55,-41.67,0,*53
1487534606.99,3531,13.25,73208.8,-11.41,-41.41,-41.61,0,*53
1487534608.22,3532,13.25,73210.8,-11.41,-41.41,-41.67,0,*56
1487534609.43,3533,13.25,73210.3,-11.39,-41.29,-41.61,0,*50
1487534610.7,3534,13.25,73210.3,-11.39,-41.67,-41.81,0,*53
1487534611.94,3535,13.25,73208.8,-11.39,-41.67,-41.87,0,*54
1487534613.21,3536,13.19,73206.0,-11.39,-41.67,-41.81,0,*51
1487534614.43,3537,13.25,73206.5,-11.41,-41.61,-41.81,0,*59
1487534615.67,3538,13.25,73210.3,-11.41,-41.41,-41.67,0,*5C
1487534616.9,3539,13.25,73210.0,-11.41,-41.23,-41.41,0,*5D
1487534618.17,3540,13.19,73206.0,-11.39,-41.67,-41.81,0,*50
1487534619.4,3541,13.25,73208.8,-11.39,-41.73,-41.93,0,*57
1487534620.64,3542,13.25,73208.8,-11.39,-41.87,-42.05,0,*53
1487534621.88,3543,13.25,73208.3,-11.39,-41.87,-42.19,0,*5F
1487534623.15,3544,13.25,73210.8,-11.39,-42.05,-42.19,0,*51
1487534624.39,3545,13.25,73210.3,-11.39,-41.99,-42.19,0,*56
1487534625.63,3546,13.25,73210.5,-11.39,-41.99,-42.05,0,*58
1487534626.89,3547,13.25,73208.0,-11.39,-41.81,-42.05,0,*50
1487534628.13,3548,13.25,73210.0,-11.39,-41.81,-41.99,0,*59
1487534629.37,3549,13.25,73206.5,-11.39,-41.61,-41.81,0,*5F
1487534630.58,3550,13.25,73208.8,-11.39,-41.29,-41.61,0,*55
1487534631.81,3551,13.25,73208.3,-11.39,-41.61,-41.81,0,*56
1487534633.07,3552,13.25,73208.8,-11.39,-42.05,-42.05,0,*5B
1487534634.31,3553,13.19,73208.0,-11.39,-42.05,-42.25,0,*58
1487534635.57,3554,13.25,73208.5,-11.41,-42.19,-42.19,0,*52
1487534636.81,3555,13.25,73208.3,-11.41,-42.19,-42.25,0,*5C
1487534638.03,3556,13.25,73208.3,-11.41,-42.25,-42.45,0,*56
1487534639.27,3557,13.19,73206.5,-11.39,-42.05,-42.25,0,*5C
1487534640.52,3558,13.25,73208.5,-11.39,-41.81,-41.87,0,*57
1487534641.73,3559,13.19,73208.0,-11.39,-41.87,-41.87,0,*50
1487534642.97,3560,13.25,73210.5,-11.39,-41.87,-42.05,0,*53
1487534644.21,3561,13.25,73208.3,-11.41,-41.81,-41.87,0,*52
1487534645.44,3562,13.25,73210.3,-11.41,-41.81,-41.99,0,*5E
1487534646.67,3563,13.25,73208.0,-11.41,-41.81,-41.87,0,*50
1487534647.87,3564,13.25,73208.8,-11.41,-41.87,-41.99,0,*5E
1487534649.1,3565,13.25,73210.3,-11.41,-41.81,-41.99,0,*59
1487534650.31,3566,13.19,73204.3,-11.41,-41.87,-41.99,0,*5C
1487534651.54,3567,13.25,73208.3,-11.41,-41.81,-41.87,0,*54
1487534652.77,3568,13.19,73208.0,-11.41,-41.67,-41.99,0,*5C
1487534654.01,3569,13.19,73206.8,-11.41,-41.67,-41.87,0,*52
1487534655.25,3570,13.25,73208.0,-11.39,-41.81,-41.87,0,*5D
1487534656.46,3571,13.19,73206.5,-11.41,-41.61,-41.87,0,*5D
1487534657.7,3572,13.25,73206.3,-11.39,-41.61,-41.81,0,*57
1487534658.94,3573,13.25,73208.0,-11.39,-41.81,-41.99,0,*51
1487534660.2,3574,13.25,73210.3,-11.39,-41.67,-41.81,0,*57
1487534661.46,3575,13.25,73210.8,-11.39,-41.81,-41.81,0,*5E
1487534662.68,3576,13.19,73206.8,-11.39,-41.87,-41.87,0,*5D
1487534663.95,3577,13.25,73208.5,-11.39,-41.81,-42.05,0,*53
1487534665.19,3578,13.25,73208.5,-11.39,-41.99,-42.19,0,*58
1487534666.43,3579,13.19,73206.0,-11.39,-41.99,-42.19,0,*59
1487534667.67,3580,13.25,73208.5,-11.39,-41.81,-41.99,0,*5D
1487534668.91,3581,13.25,73210.5,-11.39,-41.41,-41.81,0,*59
1487534670.13,3582,13.25,73208.0,-11.39,-41.61,-41.87,0,*5E
1487534671.37,3583,13.25,73210.3,-11.39,-41.81,-41.87,0,*51
1487534672.59,3584,13.25,73210.0,-11.39,-41.87,-41.87,0,*50
1487534673.83,3585,13.25,73206.8,-11.39,-41.81,-41.87,0,*57
1487534675.05,3586,13.19,73204.8,-11.39,-41.61,-41.87,0,*5A
1487534676.32,3587,13.25,73210.0,-11.39,-41.67,-41.81,0,*5B
1487534677.56,3588,13.25,73210.3,-11.39,-41.81,-41.99,0,*55
1487534678.8,3589,13.25,73210.8,-11.39,-41.87,-42.19,0,*59
1487534680.01,3590,13.25,73212.0,-11.39,-41.61,-41.99,0,*52
1487534681.26,3591,13.25,73208.3,-11.39,-41.67,-41.87,0,*5A
1487534682.5,3592,13.25,73210.0,-11.39,-41.67,-41.99,0,*56
1487534683.76,3593,13.19,73204.5,-11.39,-42.05,-42.05,0,*56
1487534685.0,3594,13.25,73208.3,-11.39,-41.99,-42.05,0,*57
1487534686.24,3595,13.25,73210.5,-11.39,-41.81,-41.87,0,*56
1487534687.5,3596,13.19,73204.8,-11.37,-41.73,-41.81,0,*50
1487534688.74,3597,13.25,73210.5,-11.39,-41.67,-41.87,0,*5C
1487534689.98,3598,13.25,73210.0,-11.39,-41.61,-41.81,0,*53
1487534691.22,3599,13.25,73210.0,-11.37,-41.61,-41.73,0,*51
1487534692.47,3600,13.19,73208.5,-11.39,-41.61,-41.67,0,*59
1487534693.71,3601,13.25,73208.0,-11.37,-41.61,-41.73,0,*53
1487534694.95,3602,13.25,73210.5,-11.39,-41.61,-41.81,0,*53
1487534696.19,3603,13.25,73210.0,-11.39,-41.61,-41.81,0,*52
1487534697.45,3604,13.25,73210.3,-11.37,-41.55,-41.73,0,*51
1487534698.72,3605,13.25,73210.8,-11.37,-41.55,-41.73,0,*50
1487534699.95,3606,13.25,73212.5,-11.39,-41.61,-41.81,0,*57
1487534701.2,3607,13.19,73210.8,-11.39,-41.67,-41.87,0,*56
1487534702.44,3608,13.25,73208.3,-11.39,-41.67,-41.87,0,*59
1487534703.7,3609,13.25,73208.8,-11.37,-41.73,-41.81,0,*55
1487534704.92,3610,13.25,73208.5,-11.39,-41.99,-41.99,0,*5E
1487534706.18,3611,13.25,73210.0,-11.37,-41.81,-41.99,0,*58
1487534707.44,3612,13.25,73210.0,-11.37,-41.81,-41.99,0,*5B
1487534708.71,3613,13.19,73208.3,-11.37,-41.81,-41.99,0,*5A
1487534709.95,3614,13.25,73206.3,-11.39,-41.81,-41.99,0,*53
1487534711.21,3615,13.25,73208.3,-11.37,-41.81,-41.99,0,*5C
1487534712.47,3616,13.25,73210.0,-11.37,-41.81,-42.13,0,*5E
1487534713.73,3617,13.19,73206.3,-11.37,-41.73,-41.81,0,*5A
1487534715.01,3618,13.25,73208.3,-11.37,-41.81,-41.93,0,*5B
1487534716.27,3619,13.25,73204.8,-11.37,-41.73,-41.93,0,*57
1487534717.49,3620,13.25,73210.5,-11.39,-41.87,-41.99,0,*52
1487534718.75,3621,13.19,73208.0,-11.37,-41.93,-41.99,0,*58
1487534720.03,3622,13.25,73206.8,-11.37,-41.93,-41.93,0,*51
1487534721.33,3623,13.25,73208.5,-11.37,-42.19,-42.19,0,*50
1487534722.59,3624,13.25,73210.0,-11.37,-42.25,-42.45,0,*51
1487534723.86,3625,13.25,73204.5,-11.39,-42.19,-42.31,0,*52
1487534725.1,3626,13.19,73206.8,-11.37,-42.25,-42.25,0,*55
1487534726.37,3627,13.19,73206.5,-11.39,-42.31,-42.45,0,*59
1487534727.61,3628,13.19,73206.5,-11.39,-42.45,-42.51,0,*50
1487534728.87,3629,13.19,73204.3,-11.39,-42.31,-42.45,0,*57
1487534730.1,3630,13.19,73206.8,-11.41,-42.31,-42.51,0,*55
1487534731.36,3631,13.19,73204.0,-11.41,-42.31,-42.45,0,*51
1487534732.59,3632,13.25,73206.5,-11.41,-42.25,-42.45,0,*57
1487534733.81,3633,13.19,73204.3,-11.43,-42.37,-42.37,0,*52
1487534735.05,3634,13.19,73206.0,-11.41,-42.45,-42.63,0,*53
1487534736.3,3635,13.19,73206.0,-11.43,-42.51,-42.57,0,*52
1487534737.53,3636,13.19,73204.8,-11.41,-42.31,-42.51,0,*53
1487534738.77,3637,13.25,73206.3,-11.43,-42.51,-42.75,0,*50
1487534740.03,3638,13.25,73204.5,-11.43,-42.51,-42.69,0,*52
1487534741.25,3639,13.19,73204.3,-11.43,-42.37,-42.37,0,*58
1487534742.49,3640,13.19,73206.3,-11.45,-42.25,-42.31,0,*55
1487534743.7,3641,13.19,73206.3,-11.45,-42.51,-42.51,0,*51
1487534745.0,3642,13.19,73204.0,-11.47,-42.31,-42.31,0,*50
1487534746.25,3643,13.25,73206.5,-11.45,-41.93,-41.93,0,*53
1487534747.46,3644,13.19,73204.5,-11.45,-41.73,-41.87,0,*5F
1487534748.69,3645,13.19,73204.3,-11.45,-41.55,-41.87,0,*5A
1487534749.92,3646,13.25,73208.0,-11.45,-41.55,-41.73,0,*52
1487534751.16,3647,13.19,73202.5,-11.45,-41.55,-41.87,0,*58
1487534752.42,3648,13.19,73206.0,-11.43,-41.55,-41.87,0,*51
1487534753.68,3649,13.25,73208.8,-11.43,-41.67,-41.87,0,*51
1487534754.94,3650,13.25,73208.0,-11.43,-41.55,-41.87,0,*58
1487534756.2,3651,13.19,73204.8,-11.43,-41.67,-41.87,0,*58
1487534757.45,3652,13.19,73204.0,-11.43,-41.87,-41.93,0,*50
1487534758.73,3653,13.19,73204.5,-11.43,-41.67,-41.93,0,*5F
1487534760.0,3654,13.19,73204.8,-11.43,-41.93,-41.93,0,*53
1487534761.28,3655,13.19,73206.0,-11.43,-41.93,-42.05,0,*5E
1487534762.51,3656,13.19,73206.0,-11.43,-42.13,-42.13,0,*51
1487534763.75,3657,13.19,73206.8,-11.43,-42.13,-42.25,0,*55
1487534765.01,3658,13.19,73202.0,-11.43,-42.25,-42.31,0,*5A
1487534766.29,3659,13.19,73202.8,-11.43,-42.05,-42.05,0,*5E
1487534767.54,3660,13.19,73204.0,-11.43,-41.87,-42.05,0,*5D
1487534768.78,3661,13.19,73206.3,-11.45,-41.87,-42.05,0,*5A
1487534770.01,3662,13.19,73204.8,-11.45,-41.87,-42.05,0,*59
1487534771.27,3663,13.19,73204.5,-11.47,-41.99,-42.19,0,*58
1487534772.5,3664,13.19,73206.0,-11.45,-42.31,-42.37,0,*50
1487534773.73,3665,13.19,73206.5,-11.45,-42.37,-42.57,0,*51
1487534774.99,3666,13.19,73206.0,-11.47,-42.45,-42.63,0,*52
1487534776.25,3667,13.25,73208.0,-11.47,-42.31,-42.37,0,*51
1487534777.51,3668,13.19,73204.8,-11.47,-42.19,-42.37,0,*54
1487534778.74,3669,13.19,73204.3,-11.47,-42.13,-42.37,0,*5F
1487534779.97,3670,13.19,73204.8,-11.45,-42.31,-42.37,0,*55
1487534781.24,3671,13.19,73206.5,-11.47,-42.57,-42.63,0,*57
1487534782.51,3672,13.19,73202.5,-11.47,-42.57,-42.57,0,*53
1487534783.76,3673,13.25,73206.3,-11.49,-42.45,-42.57,0,*5F
1487534785.0,3674,13.19,73206.3,-11.49,-42.31,-42.37,0,*5D
1487534786.23,3675,13.19,73204.8,-11.49,-41.93,-42.13,0,*51
1487534787.46,3676,13.25,73204.0,-11.49,-41.81,-41.99,0,*50
1487534788.7,3677,13.25,73204.5,-11.49,-42.13,-42.19,0,*52
1487534789.93,3678,13.19,73204.5,-11.49,-42.19,-42.37,0,*5B
1487534791.16,3679,13.19,73206.5,-11.49,-42.37,-42.45,0,*53
1487534792.39,3680,13.25,73204.8,-11.49,-42.37,-42.45,0,*55
1487534793.62,3681,13.19,73200.3,-11.49,-42.31,-42.37,0,*57
1487534794.88,3682,13.25,73206.0,-11.51,-42.45,-42.63,0,*5F
1487534796.13,3683,13.19,73204.0,-11.51,-42.37,-42.45,0,*5F
1487534797.36,3684,13.19,73204.3,-11.51,-42.25,-42.37,0,*5E
1487534798.63,3685,13.19,73204.8,-11.51,-42.19,-42.25,0,*53
1487534799.86,3686,13.19,73202.3,-11.51,-42.25,-42.37,0,*5C
1487534801.09,3687,13.19,73206.8,-11.51,-42.25,-42.37,0,*5D
1487534802.32,3688,13.19,73206.5,-11.51,-42.25,-42.37,0,*52
1487534803.58,3689,13.19,73206.3,-11.51,-41.87,-42.05,0,*59
1487534804.83,3690,13.19,73200.5,-11.51,-41.99,-42.05,0,*5E
1487534806.08,3691,13.19,73206.5,-11.51,-41.99,-42.05,0,*5F
1487534807.33,3692,13.19,73206.0,-11.51,-41.99,-42.05,0,*5C
1487534808.6,3693,13.19,73206.5,-11.51,-42.19,-42.25,0,*54
1487534809.85,3694,13.19,73204.3,-11.51,-42.25,-42.45,0,*5A
1487534811.09,3695,13.25,73206.8,-11.51,-42.25,-42.25,0,*5D
1487534812.34,3696,13.19,73206.8,-11.51,-41.99,-42.05,0,*58
1487534813.6,3697,13.25,73208.8,-11.55,-42.05,-42.25,0,*59
1487534814.89,3698,13.25,73204.5,-11.51,-42.19,-42.19,0,*50
1487534816.14,3699,13.19,73204.3,-11.51,-41.99,-42.05,0,*57
1487534817.4,3700,13.19,73202.0,-11.55,-41.87,-42.05,0,*5D
1487534818.66,3701,13.19,73206.0,-11.55,-41.61,-42.05,0,*54
1487534819.89,3702,13.19,73206.3,-11.57,-41.67,-41.87,0,*5A
1487534821.16,3703,13.19,73204.5,-11.55,-41.81,-41.87,0,*51
1487534822.41,3704,13.25,73204.5,-11.57,-41.93,-42.05,0,*5E
1487534823.67,3705,13.19,73204.8,-11.55,-41.99,-42.05,0,*57
1487534824.87,3706,13.25,73206.5,-11.57,-41.87,-42.13,0,*5E
1487534826.15,3707,13.19,73204.3,-11.51,-41.81,-42.05,0,*58
1487534827.43,3708,13.19,73206.5,-11.55,-42.05,-42.05,0,*5C
1487534828.69,3709,13.19,73200.5,-11.55,-41.87,-42.05,0,*54
1487534829.95,3710,13.19,73204.5,-11.55,-41.87,-42.05,0,*5C
1487534831.21,3711,13.19,73204.0,-11.55,-41.87,-42.05,0,*5D
1487534832.49,3712,13.19,73202.8,-11.55,-41.67,-41.93,0,*5C
1487534833.75,3713,13.19,73206.8,-11.55,-41.67,-41.99,0,*57
1487534835.02,3714,13.19,73206.0,-11.55,-41.61,-41.67,0,*57
1487534836.29,3715,13.19,73204.3,-11.55,-41.61,-41.67,0,*56
1487534837.55,3716,13.19,73204.5,-11.55,-41.67,-41.87,0,*5D
1487534838.81,3717,13.19,73204.5,-11.55,-41.81,-41.99,0,*5B
1487534840.02,3718,13.19,73202.0,-11.57,-41.87,-41.99,0,*50
1487534841.28,3719,13.19,73206.3,-11.55,-41.81,-41.99,0,*55
1487534842.52,3720,13.19,73204.5,-11.55,-41.87,-41.99,0,*59
1487534843.78,3721,13.19,73204.0,-11.55,-42.19,-42.37,0,*5B
1487534845.07,3722,13.19,73206.3,-11.55,-42.19,-42.19,0,*54
1487534846.33,3723,13.19,73204.0,-11.55,-41.99,-42.19,0,*5E
1487534847.59,3724,13.19,73202.8,-11.55,-41.99,-42.05,0,*54
1487534848.87,3725,13.19,73200.8,-11.55,-41.81,-42.05,0,*5C
1487534850.13,3726,13.19,73206.5,-11.55,-41.87,-42.05,0,*59
1487534851.34,3727,13.19,73204.3,-11.57,-42.13,-42.25,0,*56
1487534852.62,3728,13.19,73204.8,-11.55,-42.05,-42.05,0,*5E
1487534853.88,3729,13.19,73204.5,-11.55,-41.99,-42.05,0,*59
1487534855.14,3730,13.19,73206.0,-11.55,-41.67,-41.87,0,*59
1487534856.37,3731,13.19,73202.8,-11.57,-41.73,-41.93,0,*5A
1487534857.63,3732,13.19,73204.3,-11.55,-41.67,-41.99,0,*54
1487534858.91,3733,13.19,73204.5,-11.55,-41.67,-41.93,0,*5F
1487534860.17,3734,13.19,73204.5,-11.57,-41.93,-42.05,0,*5D
1487534861.37,3735,13.19,73202.8,-11.57,-42.13,-42.13,0,*50
1487534862.61,3736,13.25,73208.5,-11.57,-42.05,-42.25,0,*51
1487534863.82,3737,13.19,73204.8,-11.57,-42.13,-42.25,0,*57
1487534865.03,3738,13.19,73206.0,-11.57,-42.13,-42.25,0,*58
1487534866.25,3739,13.19,73206.3,-11.57,-42.05,-42.13,0,*5B
1487534867.51,3740,13.19,73206.3,-11.55,-41.81,-41.99,0,*59
1487534868.78,3741,13.19,73204.3,-11.55,-41.67,-41.99,0,*50
1487534870.03,3742,13.19,73204.5,-11.57,-41.93,-42.05,0,*5C
1487534871.26,3743,13.19,73206.0,-11.57,-41.73,-41.93,0,*5F
1487534872.54,3744,13.19,73206.3,-11.55,-41.67,-41.81,0,*5C
1487534873.78,3745,13.25,73206.5,-11.57,-41.67,-41.87,0,*59
1487534875.01,3746,13.19,73204.8,-11.55,-41.87,-41.99,0,*59
1487534876.22,3747,13.19,73202.8,-11.57,-42.13,-42.13,0,*55
1487534877.45,3748,13.19,73204.0,-11.57,-41.93,-42.13,0,*51
1487534878.71,3749,13.19,73204.8,-11.55,-41.81,-41.99,0,*50
1487534879.96,3750,13.19,73206.5,-11.57,-41.55,-41.93,0,*59
1487534881.2,3751,13.19,73202.5,-11.55,-41.61,-41.87,0,*58
1487534882.44,3752,13.19,73206.5,-11.57,-41.61,-41.67,0,*57
1487534883.71,3753,13.19,73204.8,-11.55,-41.61,-41.67,0,*54
1487534884.94,3754,13.19,73204.8,-11.55,-41.41,-41.61,0,*57
1487534886.18,3755,13.25,73208.3,-11.57,-41.67,-41.87,0,*58
1487534887.44,3756,13.19,73200.5,-11.55,-41.61,-41.81,0,*59
1487534888.7,3757,13.19,73202.5,-11.55,-41.61,-41.67,0,*50
1487534889.99,3758,13.19,73204.5,-11.55,-41.67,-41.81,0,*51
1487534891.26,3759,13.19,73202.3,-11.55,-41.61,-41.67,0,*5E
1487534892.46,3760,13.19,73202.5,-11.57,-41.73,-41.87,0,*5B
1487534893.72,3761,13.19,73200.3,-11.57,-41.67,-42.05,0,*56
1487534894.96,3762,13.19,73206.0,-11.55,-41.61,-41.87,0,*58
1487534896.23,3763,13.19,73202.8,-11.55,-41.67,-41.87,0,*5F
1487534897.46,3764,13.19,73200.3,-11.57,-41.67,-41.87,0,*5A